#timestamp,LO_Frequency,Hit,StdDev 
1547863215.3,286046998.9,N
1547863235.1,286046999.4,N
1547863255.9,286046999.0,N
1547863275.7,286046999.4,N
1547863295.6,286046999.2,N
1547863315.4,286046998.6,N
1547863335.2,286046998.8,N
1547863355.1,286046998.9,N
1547863356.0,286046998.9,N
1547863375.8,286047001.2,N
1547863395.7,286046998.5,N
1547863415.5,286046999.3,N
1547863435.3,286046996.9,Y
1547863455.2,286047000.2,P
1547863475.0,286047002.8,P
1547863475.9,286047002.8,N
1547863495.7,286047000.3,N
1547863515.6,286046999.7,N
1547863535.4,286047002.4,N
1547863555.3,286047000.1,N
1547863575.1,286047002.3,N
1547863576.0,286047002.3,N
1547863595.8,286047001.8,N
1547863615.7,286047002.3,N
1547863635.5,286047002.7,N
1547863655.3,286047002.8,N
1547863675.2,286047002.7,N
1547863695.0,286046999.8,N
1547863695.9,286046999.8,N
1547863715.8,286047002.8,N
1547863735.6,286047002.5,N
1547863755.4,286047001.6,N
1547863775.3,286047001.4,N
1547863795.1,286047004.2,Y
1547863815.9,286047002.6,P
1547863835.7,286047000.2,N
1547863855.5,286047002.4,N
1547863875.4,286047000.4,N
1547863895.2,286047002.7,N
1547863915.0,286047001.5,N
1547863916.0,286047001.5,N
1547863935.8,286047001.6,N
1547863955.6,286047001.3,N
1547863975.5,286047003.5,Y
1547863995.3,286047002.4,P
1547864015.1,286047000.6,N
1547864035.9,286047000.9,N
1547864055.7,286047001.0,N
1547864075.6,286046996.7,Y
1547864095.4,286046997.2,P
1547864115.2,286046996.5,N
1547864135.1,286046998.8,N
1547864136.0,286046998.8,N
1547864155.8,286046999.1,N
1547864175.6,286047001.0,N
1547864195.5,286046998.3,N
1547864215.3,286046996.6,N
1547864235.2,286046998.9,N
1547864255.9,286046996.5,N
1547864275.7,286046996.6,N
1547864295.6,286046999.2,N
1547864315.4,286046999.5,N
1547864335.2,286046998.3,N
1547864355.1,286046998.1,N
1547864356.0,286046998.1,N
1547864375.8,286046998.4,N
1547864395.7,286046996.5,N
1547864415.5,286046999.4,N
1547864435.3,286046997.2,N
1547864455.2,286046997.0,N
1547864475.0,286046996.9,N
1547864475.9,286046996.9,N
1547864495.8,286046996.8,N
1547864515.6,286046998.8,N
1547864535.4,286046998.8,N
1547864555.3,286046997.7,N
1547864575.1,286046997.0,N
1547864595.9,286046995.2,Y
1547864615.7,286046998.6,P
1547864635.5,286046996.6,P
1547864655.4,286046999.2,N
1547864675.2,286046996.7,Y
1547864695.1,286047002.7,P
1547864696.0,286047002.7,N
1547864715.8,286047000.0,N
1547864735.6,286047001.6,N
1547864755.5,286047002.1,N
1547864775.3,286047002.3,N
1547864795.1,286047002.7,N
1547864815.9,286047000.4,N
1547864835.7,286046999.3,N
1547864855.6,286047000.7,N
1547864875.4,286047000.4,N
1547864895.2,286047002.3,N
1547864915.1,286047002.2,N
1547864916.0,286047002.2,N
1547864935.4,286047001.8,N
1547864955.3,286047001.6,N
1547864975.1,286047002.3,N
1547864995.9,286047002.6,N
1547865015.7,286047000.3,N
1547865035.5,286047002.3,N
1547865055.4,286047002.2,N
1547865075.2,286047001.6,N
1547865095.0,286047002.4,N
1547865095.9,286047002.4,N
1547865115.8,286046999.7,N
1547865135.6,286047002.5,N
1547865155.5,286047001.4,N
1547865175.3,286047004.3,Y
1547865195.1,286047002.2,P
1547865215.9,286047001.0,N
1547865235.7,286047000.9,N
1547865255.6,286047000.8,N
1547865275.4,286046998.2,Y
1547865295.2,286046999.5,P
1547865315.1,286046996.7,P
1547865316.0,286046996.7,N
1547865335.8,286046996.6,N
1547865355.6,286046999.5,N
1547865375.5,286046998.5,N
1547865395.3,286046998.2,N
1547865415.2,286046999.3,N
1547865435.9,286046999.0,N
1547865455.7,286046999.0,N
1547865475.6,286046998.3,N
1547865495.4,286047000.8,N
1547865515.2,286047001.2,N
1547865535.1,286046998.5,N
1547865536.0,286046998.5,N
1547865555.8,286046996.5,N
1547865575.7,286046999.1,N
1547865595.5,286046998.7,N
1547865615.3,286046998.1,N
1547865635.2,286047000.8,N
1547865655.0,286047000.7,N
1547865655.9,286047000.7,N
1547865675.7,286046998.3,N
1547865695.6,286047001.2,N
1547865715.4,286047001.2,N
1547865735.3,286046998.7,N
1547865755.1,286047001.0,N
1547865756.0,286047001.0,N
1547865775.8,286046998.2,N
1547865795.7,286047001.1,N
1547865815.5,286046998.2,N
1547865835.3,286046998.6,N
1547865855.2,286046999.6,N
1547865875.0,286046998.3,N
1547865875.9,286046998.3,N
1547865895.8,286046998.5,N
1547865915.6,286047000.8,N
1547865935.4,286046998.3,N
1547865955.3,286046998.3,N
1547865975.1,286047000.8,N
1547865995.8,286047000.6,N
1547866015.7,286046998.2,N
1547866035.5,286047001.1,N
1547866055.4,286046998.5,N
1547866075.2,286046998.6,N
1547866095.0,286046999.0,N
1547866095.9,286046999.0,N
1547866115.8,286046998.4,N
1547866135.6,286046998.9,N
1547866155.4,286047001.1,N
1547866175.3,286046998.4,N
1547866195.1,286046996.9,N
1547866215.9,286046998.3,N
1547866235.7,286047000.5,N
1547866255.5,286047000.8,N
1547866275.4,286046998.2,N
1547866295.2,286046998.2,N
1547866315.1,286047001.1,N
1547866316.0,286047001.1,N
1547866335.8,286046998.7,N
1547866355.6,286046998.5,N
1547866375.5,286046999.3,N
1547866395.3,286046998.3,N
1547866415.1,286046998.8,N
1547866435.9,286046998.3,N
1547866455.7,286046998.2,N
1547866475.6,286046998.9,N
1547866495.4,286046999.5,N
1547866515.2,286046999.2,N
1547866535.1,286046996.6,Y
1547866536.0,286046996.6,P
1547866555.8,286046997.0,N
1547866575.7,286046996.6,P
1547866595.5,286046998.7,N
1547866615.3,286046999.3,N
1547866635.2,286046999.5,N
1547866655.0,286046996.7,N
1547866655.9,286046996.7,N
1547866675.8,286046996.7,N
1547866695.6,286046996.9,N
1547866715.4,286046999.1,N
1547866735.3,286046999.0,N
1547866755.1,286046998.8,N
1547866775.8,286046996.9,N
1547866795.7,286046999.3,N
